Showing default

YAOGAN-32 2A, 49383

Orbit data source: Space-Track

YAOGAN-32 2A, 49383 is a payload satellite owned by PLA SSF (CN) in SSO that was launched on Wed, 03 Nov 2021 UTC via a CHANG ZHENG 2C/YZ-1S launch vehicle from the Jiuquan Satellite Launch Center, China (JSC). Payload-class satellites include a variety of spacecraft equipped with specific instruments for various scientific and technological missions. These include communications satellites like Starlink; space stations such as the ISS; scientific satellites like the Hubble; Earth observation satellites from companies like Planet Labs, Umbra, and HawkEye 360; GPS; miniature CubeSats for education and research; and military/defense satellites.

Loading next visibility...
Identifier
49383, 2021-099A
Orbit
SSO
Country
Flag of CNCN / PRC
Related business
Manufacturer
SECM?
Mission
Operational Defense Sigint
Bus & Motor
Unknown
Mass
~500 kg wet, ~500 kg dry
Launch date (UTC)
2021-11-03 (5 years ago)
Launch vehicle
CHANG ZHENG 2C/YZ-1S
Launch site
Jiuquan Satellite Launch Center, China (JSC)
Object type
Payload
Rocket body
Debris
Shape & HBR
Box + 2 Pan, 0.5 m
Radar Cross Section
0.446 m², Large (>1 m²)

Expand to show TLE details & history
Last TLE update: 21 hours ago

TLE from 21 hours ago
0 YAOGAN-32 2A
1 49383U 21099A   26172.54385023  .00000511  00000-0  10635-3 0  9991
2 49383  98.2477 306.3578 0001505 143.6213 216.5092 14.64215865247009
Epoch: 2026-06-21T13:03Z
TLE epoch observation values (Epoch: 2026-06-21T13:03:08.659Z)
Latitude
-0.00002°
Longitude
-159.17088°
Altitude
683.437 km
Speed
7.514 km/s
True Right ascension
20h 25m 25s
True Declination
0° 00' 00"
Sunlit
Object was in full shadow at epoch
Visualization orbit readout
Latitude
Unknown
Longitude
Unknown
Altitude
Unknown
Speed
Unknown
Apparent Right ascension
Unknown
Apparent Declination
Unknown
Sunlit
N/A
Visualization observer readout
Local Sidereal Time
21:31:18
Azimuth
Unknown
Elevation
Unknown
Doppler factor
Unknown
Orbital elements
Apogee altitude
677.734 km
Perigee altitude
675.61 km
Semi-major axis
7,054.809 km
Eccentricity
0.00015
Inclination
98.2477°
RAAN
306.3578°
Arg. of periapsis
143.6213°
True anomaly
216.49894°
Mean anomaly
216.5092°
Eccentric anomaly
216.50407°
Mean motion
3.66282 °/min
Orbital period
98.28 mins
BSTAR
0.00010635
Loading maneuver chart data...
Computing Atmospheric mass density...
Loading historical data...
Loading historical data...
Loading historical data...
Loading historical data...
Loading historical data...
Loading historical data...
Loading historical data...
Other satellites on launch #99 in the year 2021 (2021-11-03 UTC)

Documentation

Showing up to 5 results
|